Location: Bucaritos
(10.0779°N, 67.0369°W)
Time: 04:27:47
(UTC+00:00)

Cosmos 1470 - Pass Details

Date: 27 June 2022
Orbit: 517 x 536 km, 82.5° (Epoch: 18 August)

Event Time Altitude Azimuth Distance (km) Brightness Sun altitude
Rises 23:40:05 0° 10° (N) 2,651 6.5 -11.4°
Reaches altitude 10° 23:42:21 10° 19° (NNE) 1,767 5.5 -11.9°
Maximum altitude 23:45:53 33° 85° (E) 895 3.4 -12.7°
Enters shadow 23:48:03 19° 138° (SE) 1,297 4.1 -13.2°
